Kodiak Airport Kodiak US
ICAO: PADQ
IATA:
Category: Medium
Scheduled Services:

Elevation: 78 ft
TransAlt. 18000 ft.

Airport Communications:
ANCHORAGE CNTR:125.1
ATIS:135.5
CTAF:119.8
KENAI RDO:119.8
GND:121.9
TWEB:117.1
OPS:156.8
KENAI RDO:122.2
TWR:119.8
UNICOM:122.8

PADQ Zoom In..

If you have problems with the map follow the link
https://www.worldairports.se/pages/airport.php?
ICAO=PADQ

Runways:

(A) RW 07 length 7550 ft width 150 ft
---- / hdg 74

(B) RW 11 length 5400 ft width 150 ft
---- / hdg 109

(C) RW 18 length 5010 ft width 150 ft
---- / hdg 184

(D) RW 25 length 7550 ft width 150 ft
ILS 110.90 / hdg 254

(E) RW 29 length 5400 ft width 150 ft
---- / hdg 289

(F) RW 36 length 5010 ft width 150 ft
---- / hdg 4

Location; PADQ
Day. 08 / Time. 17.53 Zulu
* Altimeter: 29.65
* Temperature: -01° c. -30.2°f.
* Wind from: 300° Speed 04 kn.
Dewpoint: -02° c.
Visibility: 10 Statute Miles.
Clouds: Clear (automated report).

PADQ 081753Z 30004KT 10SM CLR M01/M02 A2965 RMK AO2 SLP041 T10061022 10039 21006 50007


Wind From 300°
Speed 04 kn.

 
 
jpsmedia worldairports.se 2019   terms of use